星链-5448 (STARLINK-5448 )

导读

STARLINK-5448是美国SpaceX公司星链(Starlink)星座中的一颗互联网卫星,于2022年12月17日由猎鹰9号火箭发射升空。作为低轨互联网星座的组成部分,它运行在近地轨道,负责为全球偏远、网络覆盖薄弱地区提供高速宽带互联网服务。截至2025年底,星链在轨卫星已超9000颗,该卫星持续支撑星链星座的全球互联服务能力。

Basic Information
目录编号:
54770
目录名称:
STARLINK-5448
国际标识:
2022-175N
轨道中心:
EARTH
卫星名称:
星链-5448
卫星全名:
星链-5448 (STARLINK-5448 )
卫星状态:
在轨 (已飞行1357 天)
发射日期:
2022-12-17 UTC
国别 :
美国 (US)
星等 :
--
Orbit Information
数据来源 国际轨道数据 AOE轨道数据
星历时间 2026-09-04T11:15:54+0800
5小时前
查看轨道信息
2026-09-03T18:00:00+0800
23小时前
查看轨道信息
半长轴 6840.867km 6840.837km
偏心率 0.0001091 0.0001093
轨道倾角 53.158° 53.159°
近地点辐角 64.636° 58.622°
升交点赤经 294.524° 297.887°
平近点角 295.475° 285.639°
近地点 461.983km 461.952km
远地点 463.477km 463.448km
周期 93.848分钟 93.848分钟
每日圈数 15.343912 15.344011
Detailed Information
固有亮度:
5
最大亮度:
2.5
卫星平台:
Starlink v1.5
覆盖范围:
全球
运营商:
太空探索技术公司
运营商所在国:
美国
制造商(研发单位):
太空探索技术公司
制造商所在国:
美国
使用方式:
暂无
Satellite Introduction
星链(Starlink)计划是由太空探索技术公司(SpaceX)提出的一个巨型低轨卫星互联网星座项目,计划在2019年至2024年间在太空搭建由约1.2万颗卫星组成的“星链”网络,其中1584颗将部署在地球上空550千米处的近地轨道,并从2020年开始工作。该卫星仍在工作。
2D Orbit Map
3D Orbit Map
Orbit Altitude Analysis Chart
Orbit Inclination Analysis Chart
Orbit Comprehensive Analysis Chart
View Comprehensive Chart
Conjunction Data List
Event ID Objects TCA Miss Dist (km) Collision Risk Probability Collision Risk Index (CRI) Action
CDM_260905-214505-477006-938021
2026-09-05T
21:45:14+0000
0.809 km
远距离
3.439875E-5 中风险 0.66
CDM_260906-062105-477006-938021
2026-09-06T
06:21:05+0000
1.172 km
极远距离
9.732654E-6 低风险 0.55
CDM_260905-162105-477006-690421
2026-09-05T
16:21:46+0000
1.547 km
极远距离
1.863662E-6 低风险 0.4
CDM_260905-153405-477006-690421
2026-09-05T
15:34:52+0000
1.624 km
极远距离
1.621136E-6 低风险 0.39
CDM_260905-231905-477006-938021
2026-09-05T
23:19:01+0000
2.545 km
极远距离
1.147061E-6 低风险 0.36
CDM_260906-075405-477006-938021
2026-09-06T
07:54:52+0000
2.586 km
极远距离
1.117238E-6 低风险 0.36
CDM_260905-140105-477006-690422
2026-09-05T
14:01:05+0000
1.942 km
极远距离
1.023827E-6 低风险 0.35
CDM_260905-175505-477006-690421
2026-09-05T
17:55:33+0000
2.052 km
极远距离
9.048774E-7 极低风险 0.34